Location: Lane
(33.5226°N, 79.8788°W)
Time: 23:53:09
(UTC+00:00)

SR - Pass Details

Date: 01 October 2022
Orbit: 577 x 874 km, 66.7° (Epoch: 06 December)

Event Time Altitude Azimuth Distance (km) Brightness Sun altitude
Rises 10:13:52 0° 353° (N) 3,314 ? -13.3°
Reaches altitude 10° 10:18:06 10° 24° (NNE) 2,304 ? -12.4°
Maximum altitude 10:20:04 12° 46° (NE) 2,129 ? -12.0°
Drops below altitude 10° 10:21:59 10° 68° (ENE) 2,225 ? -11.6°
Sets 10:25:52 0° 100° (E) 3,059 ? -10.8°
